TimeMST,TemperatureF,Dew PointF,Humidity,Sea Level PressureIn,VisibilityMPH,Wind Direction,Wind SpeedMPH,Gust SpeedMPH,PrecipitationIn,Events,Conditions,WindDirDegrees,DateUTC
12:53 AM,46.0,10.0,23,29.68,10.0,SW,25.3,-,N/A,,Clear,230,2014-01-12 07:53:00
1:53 AM,39.9,16.0,38,29.70,10.0,SSW,19.6,-,N/A,,Clear,210,2014-01-12 08:53:00
2:53 AM,37.9,17.1,43,29.69,10.0,SSW,23.0,-,N/A,,Clear,200,2014-01-12 09:53:00
3:53 AM,37.0,18.0,46,29.66,10.0,South,23.0,-,N/A,,Clear,170,2014-01-12 10:53:00
4:53 AM,37.0,18.0,46,29.66,10.0,SSW,18.4,-,N/A,,Clear,200,2014-01-12 11:53:00
5:53 AM,41.0,17.1,38,29.65,10.0,SW,25.3,-,N/A,,Clear,220,2014-01-12 12:53:00
6:53 AM,39.9,16.0,38,29.64,10.0,SW,25.3,35.7,N/A,,Clear,220,2014-01-12 13:53:00
7:53 AM,44.1,14.0,30,29.65,10.0,West,18.4,31.1,N/A,,Clear,260,2014-01-12 14:53:00
8:28 AM,44.1,15.1,31,29.80,10.0,SSW,10.4,19.6,N/A,,Clear,210,2014-01-12 15:28:00
8:53 AM,46.9,12.0,24,29.65,10.0,West,17.3,41.4,N/A,,Clear,260,2014-01-12 15:53:00
9:53 AM,51.1,14.0,23,29.62,10.0,West,28.8,36.8,N/A,,Clear,260,2014-01-12 16:53:00
10:53 AM,52.0,14.0,22,29.61,10.0,WSW,29.9,41.4,N/A,,Clear,250,2014-01-12 17:53:00
11:53 AM,51.1,12.0,21,29.60,10.0,West,27.6,46.0,N/A,,Clear,260,2014-01-12 18:53:00
12:53 PM,51.1,12.0,21,29.56,10.0,West,26.5,40.3,N/A,,Clear,260,2014-01-12 19:53:00
1:53 PM,50.0,10.0,20,29.60,10.0,West,34.5,50.6,N/A,,Clear,280,2014-01-12 20:53:00
2:53 PM,48.0,1.0,14,29.65,10.0,West,38.0,42.6,N/A,,Partly Cloudy,260,2014-01-12 21:53:00
3:53 PM,46.0,7.0,20,29.69,10.0,West,26.5,-,N/A,,Scattered Clouds,270,2014-01-12 22:53:00
4:53 PM,39.9,8.1,27,29.76,10.0,WNW,15.0,-,N/A,,Scattered Clouds,300,2014-01-12 23:53:00
5:53 PM,35.1,5.0,28,29.81,10.0,NW,19.6,25.3,N/A,,Clear,310,2014-01-13 00:53:00
6:53 PM,33.1,3.0,28,29.84,10.0,NW,18.4,27.6,N/A,,Clear,310,2014-01-13 01:53:00
7:53 PM,32.0,6.1,34,29.89,10.0,WNW,21.9,-,N/A,,Clear,300,2014-01-13 02:53:00
8:53 PM,30.9,1.9,29,29.89,10.0,WNW,26.5,34.5,N/A,,Clear,290,2014-01-13 03:53:00
9:53 PM,28.0,1.9,33,29.91,10.0,WNW,17.3,-,N/A,,Clear,300,2014-01-13 04:53:00
10:53 PM,28.0,3.0,34,29.93,10.0,WNW,19.6,-,N/A,,Clear,290,2014-01-13 05:53:00
11:53 PM,26.1,3.0,37,29.95,10.0,NNW,11.5,-,N/A,,Clear,330,2014-01-13 06:53:00